Tracking 23726 objects as of 16-Oct-2021
HD Live streaming from Space Station
objects crossing your sky now

SL-14 DEB

Track SL-14 DEB now!
10-day predictions


NORAD ID: 45327
Int'l Code: 1991-056BR
Perigee: 1,069.1 km
Apogee: 1,198.4 km
Inclination: 82.6 °
Period: 107.8 minutes
Semi major axis: 7504 km
RCS: Unknown
Launch date: August 15, 1991
Source: Commonwealth of Independent States (former USSR) (CIS)
Launch site: PLESETSK MISSILE AND SPACE COMPLEX (PKMTR)

Note: This is SATELLITE DEBRIS
aabbcc
Your satellite tracking list
Your tracking list is empty




NASA's NSSDC Master Catalog

Two Line Element Set (TLE):
1 45327U 91056BR  21288.92227773  .00000571  00000-0  10809-2 0  9995
2 45327  82.5670 250.7172 0086177 320.9070  38.5855 13.35362120 79090
Source of the keplerian elements: AFSPC